• en France
  • Liste des pays
  • À 7 jours
  • Température de l'eau
  • Carte satellitaire
  • Carte météo
  • Widgets météo
  • user-avatar
    Se connecter

    Météo par heure à Nikoia

    Ce jour, 27 Mai, Dimanche

    Heure Température Précipitation Vent Pression Humidité
    00:00 +27°C° 1,1 mm 1 m/s 745 mmHg 87%
    01:00 +27°C° 0,9 mm 1 m/s 745 mmHg 88%
    02:00 +27°C° 0,9 mm 2 m/s 745 mmHg 88%
    03:00 +26°C° 0,9 mm 2 m/s 744 mmHg 89%
    04:00 +26°C° 0,9 mm 2 m/s 745 mmHg 89%
    05:00 +26°C° 0,9 mm 2 m/s 745 mmHg 90%
    06:00 +26°C° 0,9 mm 2 m/s 745 mmHg 90%
    07:00 +27°C° 0,6 mm 2 m/s 745 mmHg 89%
    08:00 +27°C° 0,6 mm 2 m/s 746 mmHg 88%
    09:00 +28°C° 0,6 mm 2 m/s 746 mmHg 86%
    10:00 +28°C° 1 mm 2 m/s 746 mmHg 85%
    11:00 +28°C° 1 mm 2 m/s 746 mmHg 84%
    12:00 +28°C° 1 mm 2 m/s 746 mmHg 83%
    13:00 +28°C° 0,7 mm 2 m/s 745 mmHg 83%
    14:00 +28°C° 0,7 mm 2 m/s 745 mmHg 83%
    15:00 +28°C° 0,7 mm 1 m/s 745 mmHg 83%
    16:00 +28°C° 0,5 mm 1 m/s 745 mmHg 85%
    17:00 +27°C° 0,5 mm 1 m/s 745 mmHg 86%
    18:00 +27°C° 0,5 mm 1 m/s 745 mmHg 88%
    19:00 +27°C° 0,9 mm 1 m/s 745 mmHg 89%
    20:00 +27°C° 0,9 mm 1 m/s 746 mmHg 89%
    21:00 +26°C° 0,9 mm 1 m/s 746 mmHg 90%
    22:00 +26°C° 1,1 mm 1 m/s 746 mmHg 90%
    23:00 +26°C° 1,1 mm 1 m/s 746 mmHg 91%

    Demain, 28 Mai, Lundi

    Heure Température Précipitation Vent Pression Humidité
    00:00 +26°C° 1,1 mm 1 m/s 746 mmHg 91%
    01:00 +26°C° 2 mm 1 m/s 746 mmHg 92%
    02:00 +26°C° 2 mm 1 m/s 745 mmHg 92%
    03:00 +26°C° 2 mm 1 m/s 745 mmHg 93%
    04:00 +26°C° 2,9 mm 1 m/s 745 mmHg 94%
    05:00 +25°C° 2,9 mm 1 m/s 745 mmHg 94%
    06:00 +25°C° 2,9 mm 1 m/s 745 mmHg 95%
    07:00 +26°C° 1,6 mm 1 m/s 746 mmHg 92%
    08:00 +27°C° 1,6 mm 1 m/s 746 mmHg 89%
    09:00 +27°C° 1,6 mm 1 m/s 747 mmHg 86%
    10:00 +28°C° 1 mm 2 m/s 747 mmHg 84%
    11:00 +29°C° 1 mm 2 m/s 746 mmHg 82%
    12:00 +29°C° 1 mm 2 m/s 746 mmHg 80%
    13:00 +29°C° 1,6 mm 2 m/s 746 mmHg 81%
    14:00 +29°C° 1,6 mm 3 m/s 745 mmHg 82%
    15:00 +29°C° 1,6 mm 3 m/s 745 mmHg 83%
    16:00 +28°C° 0,9 mm 2 m/s 745 mmHg 85%
    17:00 +28°C° 0,9 mm 2 m/s 745 mmHg 88%
    18:00 +27°C° 0,9 mm 2 m/s 745 mmHg 90%
    19:00 +27°C° 0,3 mm 2 m/s 746 mmHg 91%
    20:00 +26°C° 0,3 mm 2 m/s 746 mmHg 92%
    21:00 +26°C° 0,3 mm 2 m/s 747 mmHg 93%
    22:00 +26°C° 0,6 mm 2 m/s 747 mmHg 94%
    23:00 +26°C° 0,6 mm 2 m/s 746 mmHg 94%

    Après-demain, 29 Mai, Mardi

    Heure Température Précipitation Vent Pression Humidité
    00:00 +26°C° 0,6 mm 2 m/s 746 mmHg 94%
    01:00 +26°C° 1 mm 2 m/s 746 mmHg 94%
    02:00 +25°C° 1 mm 2 m/s 745 mmHg 94%
    03:00 +25°C° 1 mm 2 m/s 745 mmHg 93%
    04:00 +26°C° 0,7 mm 2 m/s 745 mmHg 93%
    05:00 +26°C° 0,7 mm 2 m/s 745 mmHg 92%
    06:00 +26°C° 0,7 mm 2 m/s 745 mmHg 92%
    07:00 +27°C° 0,4 mm 2 m/s 746 mmHg 86%
    08:00 +29°C° 0,4 mm 2 m/s 746 mmHg 80%
    09:00 +30°C° 0,4 mm 2 m/s 747 mmHg 74%
    10:00 +30°C° 0,8 mm 2 m/s 746 mmHg 73%
    11:00 +31°C° 0,8 mm 2 m/s 746 mmHg 71%
    12:00 +33°C° 0,8 mm 3 m/s 746 mmHg 70%
    13:00 +31°C° 1,3 mm 3 m/s 745 mmHg 72%
    14:00 +31°C° 1,3 mm 3 m/s 744 mmHg 73%
    15:00 +30°C° 1,3 mm 3 m/s 744 mmHg 75%
    16:00 +30°C° 1,2 mm 3 m/s 744 mmHg 79%
    17:00 +29°C° 1,2 mm 2 m/s 744 mmHg 83%
    18:00 +28°C° 1,2 mm 2 m/s 745 mmHg 87%
    19:00 +27°C° 1,2 mm 2 m/s 745 mmHg 88%
    20:00 +27°C° 1,2 mm 2 m/s 746 mmHg 88%
    21:00 +27°C° 1,2 mm 2 m/s 747 mmHg 89%
    22:00 +27°C° 0,9 mm 1 m/s 746 mmHg 89%
    23:00 +26°C° 0,9 mm 1 m/s 746 mmHg 89%

    30 Mai, Mercredi

    Heure Température Précipitation Vent Pression Humidité
    00:00 +26°C° 0,9 mm 1 m/s 746 mmHg 89%
    01:00 +26°C° 0,1 mm 1 m/s 745 mmHg 90%
    02:00 +26°C° 0,1 mm 1 m/s 745 mmHg 90%
    03:00 +26°C° 0,1 mm 1 m/s 745 mmHg 91%
    04:00 +26°C° 0,1 mm 1 m/s 745 mmHg 91%
    05:00 +26°C° 0,1 mm 1 m/s 745 mmHg 91%
    06:00 +26°C° 0,1 mm 1 m/s 745 mmHg 90%
    07:00 +27°C° 0,4 mm 1 m/s 746 mmHg 85%
    08:00 +29°C° 0,4 mm 2 m/s 746 mmHg 80%
    09:00 +30°C° 0,4 mm 2 m/s 747 mmHg 75%
    10:00 +31°C° 0,5 mm 2 m/s 746 mmHg 72%
    11:00 +31°C° 0,5 mm 2 m/s 746 mmHg 69%
    12:00 +33°C° 0,5 mm 3 m/s 745 mmHg 66%
    13:00 +33°C° 0,8 mm 3 m/s 745 mmHg 67%
    14:00 +33°C° 0,8 mm 3 m/s 744 mmHg 69%
    15:00 +33°C° 0,8 mm 3 m/s 744 mmHg 70%
    16:00 +30°C° 0,6 mm 3 m/s 744 mmHg 75%
    17:00 +29°C° 0,6 mm 2 m/s 744 mmHg 80%
    18:00 +28°C° 0,6 mm 2 m/s 744 mmHg 84%
    19:00 +28°C° 0,4 mm 2 m/s 745 mmHg 85%
    20:00 +28°C° 0,4 mm 1 m/s 745 mmHg 87%
    21:00 +27°C° 0,4 mm 1 m/s 746 mmHg 88%
    22:00 +27°C° 0,4 mm 1 m/s 746 mmHg 88%
    23:00 +27°C° 0,4 mm 1 m/s 746 mmHg 89%

    31 Mai, Jeudi

    Heure Température Précipitation Vent Pression Humidité
    00:00 +27°C° 0,4 mm 1 m/s 745 mmHg 90%
    01:00 +27°C° 0,7 mm 1 m/s 745 mmHg 90%
    02:00 +24°C° 0,7 mm 0 m/s 745 mmHg 91%
    03:00 +24°C° 0,7 mm 0 m/s 744 mmHg 91%
    04:00 +26°C° 0,4 mm 1 m/s 745 mmHg 91%
    05:00 +27°C° 0,4 mm 1 m/s 745 mmHg 90%
    06:00 +27°C° 0,4 mm 1 m/s 745 mmHg 89%
    07:00 +28°C° 0,5 mm 1 m/s 746 mmHg 84%
    08:00 +29°C° 0,5 mm 1 m/s 746 mmHg 79%
    09:00 +30°C° 0,5 mm 1 m/s 746 mmHg 74%
    10:00 +31°C° 0,8 mm 1 m/s 746 mmHg 72%
    11:00 +31°C° 0,8 mm 1 m/s 745 mmHg 71%
    12:00 +31°C° 0,8 mm 1 m/s 745 mmHg 69%
    13:00 +31°C° 1,5 mm 1 m/s 745 mmHg 72%
    14:00 +30°C° 1,5 mm 1 m/s 744 mmHg 75%
    15:00 +30°C° 1,5 mm 1 m/s 744 mmHg 78%
    16:00 +29°C° 1,6 mm 1 m/s 744 mmHg 82%
    17:00 +28°C° 1,6 mm 1 m/s 744 mmHg 85%
    18:00 +28°C° 1,6 mm 1 m/s 744 mmHg 89%
    19:00 +28°C° 1,1 mm 1 m/s 745 mmHg 89%
    20:00 +25°C° 1,1 mm 0 m/s 745 mmHg 89%
    21:00 +25°C° 1,1 mm 0 m/s 745 mmHg 90%
    22:00 +25°C° 0,7 mm 0 m/s 745 mmHg 90%
    23:00 +25°C° 0,7 mm 0 m/s 745 mmHg 90%

    1 Juin, Vendredi

    Heure Température Précipitation Vent Pression Humidité
    00:00 +25°C° 0,7 mm 0 m/s 745 mmHg 90%
    01:00 +25°C° 0,8 mm 0 m/s 744 mmHg 90%
    02:00 +25°C° 0,8 mm 0 m/s 744 mmHg 91%
    03:00 +24°C° 0,8 mm 0 m/s 744 mmHg 91%
    04:00 +24°C° 0,7 mm 0 m/s 744 mmHg 90%
    05:00 +25°C° 0,7 mm 0 m/s 745 mmHg 90%
    06:00 +25°C° 0,7 mm 0 m/s 745 mmHg 89%
    07:00 +26°C° 0,7 mm 0 m/s 745 mmHg 84%
    08:00 +27°C° 0,7 mm 0 m/s 746 mmHg 79%
    09:00 +28°C° 0,7 mm 0 m/s 746 mmHg 74%
    10:00 +31°C° 1,1 mm 1 m/s 746 mmHg 71%
    11:00 +31°C° 1,1 mm 1 m/s 745 mmHg 69%
    12:00 +32°C° 1,1 mm 2 m/s 745 mmHg 66%
    13:00 +31°C° 1,6 mm 2 m/s 745 mmHg 70%
    14:00 +31°C° 1,6 mm 2 m/s 744 mmHg 74%
    15:00 +30°C° 1,6 mm 3 m/s 744 mmHg 78%
    16:00 +29°C° 1 mm 2 m/s 744 mmHg 81%
    17:00 +28°C° 1 mm 2 m/s 744 mmHg 84%
    18:00 +28°C° 1 mm 1 m/s 744 mmHg 87%
    19:00 +27°C° 0,3 mm 1 m/s 745 mmHg 88%
    20:00 +27°C° 0,3 mm 1 m/s 745 mmHg 88%
    21:00 +27°C° 0,3 mm 1 m/s 746 mmHg 88%
    22:00 +27°C° 0,3 mm 1 m/s 745 mmHg 88%
    23:00 +27°C° 0,3 mm 1 m/s 745 mmHg 88%
    Voir plus